Location: B?dimalle
(17.1788°N, 80.5377°E)
Time: 08:41:31
(UTC+00:00)

Vanguard 2 - All Passes

Search period start: 16 February 2026 00:00
Search period end: 26 February 2026 00:00
Orbit: 553 x 2897 km, 32.9° (Epoch: 14 February)

Date Brightness Start Highest point End Pass type
(mag) Time Alt. Az. Time Alt. Az. Time Alt. Az.
16 Feb - 00:00:16 10° W 00:06:26 41° NNW 00:10:43 10° NE visible
16 Feb - 02:14:11 10° NNW 02:15:03 10° N 02:15:53 10° N daylight
16 Feb - 04:22:27 10° NNW 04:24:38 14° NNE 04:27:03 10° NE daylight
16 Feb - 06:28:08 10° NW 06:32:57 60° NNE 06:40:31 10° ESE daylight
16 Feb - 08:35:44 10° W 08:41:49 37° SSW 08:51:23 10° SSE daylight
16 Feb - 10:49:46 10° SW 10:53:01 12° SSW 10:56:41 10° S daylight
16 Feb - 19:51:48 10° SSW 20:00:03 21° SSE 20:06:07 10° ESE night (unlit)
16 Feb - 22:00:40 10° SW 22:10:12 64° SSE 22:15:54 10° ENE visible
17 Feb - 00:12:56 10° W 00:18:27 30° NNW 00:22:28 10° NE visible
17 Feb - 04:34:01 10° NNW 04:36:51 17° NNE 04:40:09 10° ENE daylight
17 Feb - 06:40:03 10° WNW 06:44:57 85° NNE 06:52:46 10° ESE daylight
17 Feb - 08:48:26 10° W 08:54:08 26° SSW 09:02:27 10° SSE daylight
17 Feb - 20:02:25 10° SSW 20:12:28 28° SSE 20:19:18 10° E night (unlit)
17 Feb - 22:12:36 10° WSW 22:22:15 87° SSE 22:27:58 10° ENE visible
18 Feb - 00:25:47 10° WNW 00:30:33 23° NNW 00:34:11 10° NNE visible
18 Feb - 04:45:38 10° NNW 04:48:59 23° NNE 04:53:05 10° ENE daylight
18 Feb - 06:52:05 10° WNW 06:56:58 67° SSW 07:04:45 10° SE daylight
18 Feb - 09:01:38 10° WSW 09:06:32 18° SSW 09:13:02 10° SSE daylight
18 Feb - 18:07:32 10° S 18:12:59 13° SSE 18:17:44 10° SE visible
18 Feb - 20:13:27 10° SSW 20:24:48 38° SSE 20:32:02 10° E night (unlit)
18 Feb - 22:24:47 10° WSW 22:34:15 70° NNW 22:39:55 10° NE visible
19 Feb - 00:38:46 10° WNW 00:42:43 18° NNW 00:45:52 10° NNE visible
19 Feb - 04:57:19 10° NW 05:01:03 33° NNE 05:05:47 10° E daylight
19 Feb - 07:04:17 10° WNW 07:09:03 45° SSW 07:16:28 10° SE daylight
19 Feb - 09:15:58 10° SW 09:19:00 12° SSW 09:22:32 10° S daylight
19 Feb - 18:16:39 10° S 18:25:38 18° SSE 18:32:46 10° ESE visible
19 Feb - 20:24:50 10° SW 20:37:02 51° SSE 20:44:27 10° ENE night (unlit)
19 Feb - 22:37:12 10° WSW 22:46:14 52° NNW 22:51:46 10° NE visible
20 Feb - 00:51:50 10° NW 00:54:58 15° NNW 00:57:37 10° NNE daylight
20 Feb - 03:03:13 10° N 03:04:36 11° N 03:05:59 10° NNE daylight
20 Feb - 05:09:05 10° NW 05:13:03 49° NNE 05:18:18 10° ESE daylight
20 Feb - 07:16:43 10° W 07:21:15 30° SSW 07:27:50 10° SSE daylight
20 Feb - 18:26:52 10° SSW 18:38:09 25° SSE 18:46:30 10° E visible
20 Feb - 20:36:29 10° SW 20:49:11 66° SSE 20:56:41 10° ENE visible
20 Feb - 22:49:49 10° W 22:58:14 40° NNW 23:03:35 10° NE visible
21 Feb - 01:04:50 10° NW 01:07:18 13° NNW 01:09:29 10° NNE daylight
21 Feb - 03:14:38 10° NNW 03:16:55 14° NNE 03:19:12 10° NE daylight
21 Feb - 05:20:58 10° WNW 05:25:02 78° NNE 05:30:33 10° ESE daylight
21 Feb - 07:29:34 10° WSW 07:33:31 20° SSW 07:38:47 10° SSE daylight
21 Feb - 16:36:01 10° SSE 16:37:30 10° SSE 16:38:58 10° SSE visible
21 Feb - 18:37:35 10° SSW 18:50:33 33° SSE 18:59:36 10° E night (unlit)
21 Feb - 20:48:23 10° SW 21:01:16 85° SSE 21:08:45 10° ENE visible
21 Feb - 23:02:38 10° W 23:10:18 32° NNW 23:15:24 10° NE visible
22 Feb - 01:17:35 10° NNW 01:19:42 12° N 01:21:35 10° NNE daylight
22 Feb - 03:26:12 10° NNW 03:29:09 19° NNE 03:32:08 10° ENE daylight
22 Feb - 05:32:58 10° WNW 05:37:02 65° SSW 05:42:32 10° SE daylight
22 Feb - 07:43:18 10° SW 07:45:50 13° SSW 07:48:50 10° S daylight
22 Feb - 16:42:14 10° S 16:50:18 15° SSE 16:57:26 10° ESE visible
22 Feb - 18:48:40 10° SSW 19:02:51 42° SSE 19:12:18 10° E night (unlit)
22 Feb - 21:00:32 10° WSW 21:13:17 78° NNW 21:20:44 10° NE visible
22 Feb - 23:15:34 10° WNW 23:22:27 26° NNW 23:27:13 10° NE visible
23 Feb - 01:29:57 10° NNW 01:32:07 12° N 01:34:04 10° NNE daylight
23 Feb - 03:37:50 10° NW 03:41:18 27° NNE 03:44:52 10° E daylight
23 Feb - 05:45:11 10° W 05:49:04 39° SSW 05:54:13 10° SE daylight
23 Feb - 16:51:48 10° S 17:02:54 21° SSE 17:12:11 10° ESE visible
23 Feb - 19:00:01 10° SW 19:15:04 54° SSE 19:24:43 10° ENE night (unlit)
23 Feb - 21:12:54 10° WSW 21:25:18 62° NNW 21:32:38 10° NE visible
23 Feb - 23:28:34 10° WNW 23:34:42 22° NNW 23:39:07 10° NNE visible
24 Feb - 01:41:58 10° NNW 01:44:32 14° N 01:46:49 10° NE daylight
24 Feb - 03:49:33 10° NW 03:53:23 42° NNE 03:57:21 10° E daylight
24 Feb - 05:57:43 10° W 06:01:10 24° SSW 06:05:32 10° SSE daylight
24 Feb - 17:02:07 10° SSW 17:15:21 27° SSE 17:25:53 10° E visible
24 Feb - 19:11:37 10° SW 19:27:12 68° SSE 19:36:58 10° ENE night (unlit)
24 Feb - 21:25:30 10° W 21:37:21 50° NNW 21:44:30 10° NE visible
24 Feb - 23:41:31 10° WNW 23:47:02 20° NNW 23:51:07 10° NNE visible
25 Feb - 01:53:47 10° NNW 01:56:55 16° N 01:59:39 10° NE daylight
25 Feb - 04:01:25 10° NW 04:05:25 70° NNE 04:09:37 10° ESE daylight
25 Feb - 06:10:50 10° WSW 06:13:19 15° SSW 06:16:12 10° S daylight
25 Feb - 15:11:29 10° SSE 15:14:19 11° SSE 15:17:07 10° SE visible
25 Feb - 17:12:52 10° SSW 17:27:40 35° SSE 17:39:01 10° E visible
25 Feb - 19:23:28 10° SW 19:39:17 82° SSE 19:49:04 10° ENE night (unlit)
25 Feb - 21:38:17 10° W 21:49:26 42° NNW 21:56:23 10° NE visible
